Regional Weather Roundup
Issued by NWS

Home | Current Version | Previous Version | Text Only | Print | Product List | Glossary Off
Versions: 1 2 3 4 5 6 7 8 9 10 11 12 13 14 15 16 17 18 19 20 21 22 23 24 25 26 27 28 29 30 31 32 33 34 35 36 37 38 39 40 41 42 43 44 45 46 47 48 49 50

000
ASUS43 KFSD 181502
RWRSD

WEATHER ROUNDUP FOR SOUTH DAKOTA
NATIONAL WEATHER SERVICE SIOUX FALLS SD
1000 AM CDT FRI AUG 18 2017

NOTE: "FAIR" INDICATES FEW OR NO CLOUDS BELOW 12,000 FEET WITH NO
SIGNIFICANT WEATHER AND/OR OBSTRUCTIONS TO VISIBILITY.


SDZ001>005-009-010-012>017-181600-
NORTHWEST AND NORTH CENTRAL SOUTH DAKOTA

CITY           SKY/WX    TMP DP  RH WIND       PRES   REMARKS
BUFFALO          N/A     70  50  49 N6        29.99R
FAITH            N/A     71  50  47 N8        30.00R
MOBRIDGE       SUNNY     65  58  78 NW10      29.93R
$$

SDZ012>016-024>037-041>051-057-063-072>074-181600-
SOUTHWEST AND SOUTH CENTRAL SOUTH DAKOTA

CITY           SKY/WX    TMP DP  RH WIND       PRES   REMARKS
RAPID CTY ARPT MOSUNNY   71  50  47 N9        30.06R
PIERRE         SUNNY     67  59  75 W8        29.93R
CUSTER         SUNNY     70  40  33 NW9       30.19R
ELLSWORTH AFB  MOSUNNY   69  49  47 N7        30.05R
PHILIP         SUNNY     72  51  47 W9        29.99R
PINE RIDGE     SUNNY     70  53  54 SW8       30.07S
SPEARFISH      FAIR      72  43  35 W8        30.10R
WINNER         FAIR      71  55  56 W10       29.95F
$$

SDZ004>011-016>023-039-040-181600-
NORTHEAST SOUTH DAKOTA

CITY           SKY/WX    TMP DP  RH WIND       PRES   REMARKS
ABERDEEN       SUNNY     69  60  73 SW12      29.88S
WATERTOWN      MOSUNNY   68  59  73 SW10      29.90S
BROOKINGS      SUNNY     66  60  81 S6        29.94S
SISSETON         N/A     69  63  81 SW10      29.87R
$$

SDZ017-020-022-023-036>040-048>070-181600-
SOUTHEAST SOUTH DAKOTA

CITY           SKY/WX    TMP DP  RH WIND       PRES   REMARKS
SIOUX FALLS    MOSUNNY   70  63  78 SE6       29.94S
HURON          SUNNY     69  62  78 S9        29.90F
CHAMBERLAIN    MOSUNNY   66  64  91 SW12      29.93R
MITCHELL       SUNNY     69  62  78 S7        29.93R
YANKTON        SUNNY     71  62  73 CALM      29.95R
$$

ABBREVIATIONS USED IN REMARKS
   TC - TEMPERATURE IN CELSIUS
  WCI - WIND CHILL INDEX
   HX - HEAT INDEX
  VSB - VISIBILITY





USA.gov is the U.S. government's official web portal to all federal, state and local government web resources and services.